SCP
0 0 0 0 0 0 0 0 0 0 0 0 0 0 0 0 0 0 0 0 -0 0 0 0 0 0 0 0 0 0 0 0 0 0 0 0 0 0 0 0 0 0 0 0 0
0 0 0 0 0 0 0 0 0 0 0 0 0 0 0 0 0 0 0 0 0 0 0 0 0 0 0 0 0 0 0 0 0 0 0 0 0 0 0 0 0 0 0 0 0
0 0 0 0 0 0 0 0 0 0 0 0 0 0 0 0 0 0 0 0 0 0 0 0 0 0 0 0 0 0 0 0 0 0 0 0 0 0 0 0 0 0 0 0 0
0 0 0 0 0 0 0 0 0 0 0 0 0 0 0 0 0 0 0 0 0 0 0 0 0 0 0 0 0 0 0 0 0 0 0 0 0 0 0 0 0 0 0 0 0
0 0 0 0 0 0 0 0 0 0 0 0 0 0 0 0 0 0 0 0 0 0 0 0 0 0 0 0 0 0 0 -0 0 0 0 -0 0 0 0 0 0 0 0 0 0
0 0 0 0 0 0 0 0 0 0 0 0 0 0 0 0 0 0 0 0 0 0 0 0 0 0 0 0 0 0 0 -0 0 0 0 0 0 0 0 0 0 0 0 0 0
0 0 0 0 0 0 0 0 0 0 0 0 0 0 0 0 0 0 0 0 0 0 0 0 0 0 0 0 0 0 0 0 0 0 0 -0 0 0 0 0 0 0 0 0 0
0 0 0 0 0 0 0 0 0 0 0 0 0 0 0 0 0 0 0 0 0 0 0 0 0 0 0 0 0 0 0 0 0 0 0 0 0 0 0 0 0 0 0 0 0
0 0 0 0 0 0 0 0 0 0 0 0 0 0 0 0 0 0 0 0 0 0 0 0 0 0 0 0 0 0 0 0 0 0 0 -0 0 0 0 0 0 0 0 0 0
0 0 0 0 0 0 0 0 0 0 0 0 0 0 0 0 0 0 0 0 0 0 0 0 0 0 0 0 0 0 0 0 0 0 0 0 -0 -0 0 0 0 0 0 0 0
0 0 0 0 0 0 0 0 0 0 0 0 0 0 0 0 0 0 0 0 0 0 0 0 0 0 0 0 0 0 0 0 0 0 0 0 -0 0 0 0 0 0 0 0 0
0 0 0 0 0 0 0 0 0 0 0 0 0 0 0 0 0 0 0 0 0 0 0 0 0 0 0 0 0 0 0 0 0 0 0 -0 0 -0 0 0 0 0 0 0 0
0 0 0 0 0 0 0 0 0 0 0 0 0 0 0 0 0 0 0 0 0 0 0 0 0 0 0 0 0 0 0 0 0 0 -0 -0 -0 0 0 -0 -0 -0 0 0 0
0 0 0 0 0 0 0 0 0 0 0 0 0 0 0 0 0 0 0 0 0 0 0 0 0 0 0 0 0 0 0 0 0 0 -0 -0 -0 -0 0 -0 -0 -0 -0 0 0
0 0 0 0 0 0 0 0 0 0 0 0 0 0 0 0 0 0 0 0 0 0 0 0 0 0 0 0 0 0 0 0 0 0 -0 -0 -0 -0 0 0 -0 -0 -0 0 0
0 0 0 0 0 0 0 0 0 0 0 0 0 0 0 0 0 0 0 0 0 0 0 0 0 0 0 0 0 0 0 0 0 0 -0 -0 -0 -0 -0 -0 0 -0 -0 0 0
0 0 0 0 0 0 0 0 0 0 0 0 0 0 0 0 0 0 0 0 0 0 0 0 0 0 0 0 0 0 0 0 0 0 0 0 -0 -0 0 0 0 -0 -0 0 0
0 0 0 0 0 0 0 0 0 0 0 0 0 0 0 0 0 0 0 0 0 0 0 0 0 0 0 0 0 0 0 0 0 0 0 0 -0 -0 0 0 0 -0 -0 0 0
0 0 0 0 0 0 0 0 0 0 0 0 0 0 0 0 0 0 0 0 0 0 0 0 0 0 0 0 0 0 0 0 0 0 0 -0 0 0 0 0 0 0 -0 -0 0
0 0 0 0 0 0 0 0 0 0 0 0 0 0 0 0 0 0 0 0 0 0 0 0 0 0 0 0 0 0 0 0 0 0 0 0 -0 -0 -0 -0 -0 0 -0 -0 -0
0 0 0 0 0 0 0 0 0 0 0 0 0 0 0 0 0 0 0 0 0 0 0 0 0 0 0 0 0 0 0 0 0 0 0 0 0 0 -0 0 0 0 0 -0 -0
0 0 0 0 0 0 0 0 0 0 0 0 0 0 0 0 0 0 0 0 0 0 0 0 0 0 0 0 0 0 0 0 0 0 0 0 0 0 0 0 0 0 0 0 -0
0 0 0 0 0 0 0 0 0 0 0 0 0 0 0 0 0 0 0 0 0 0 0 0 0 0 0 0 0 0 0 0 0 0 0 0 0 0 0 0 0 0 0 0 0
-0 0 0 0 0 0 0 0 0 0 0 0 0 0 0 0 0 -0 0 0 0 0 0 0 0 0 0 0 0 0 0 0 0 0 0 0 0 0 0 0 0 0 0 0 0
0 0 0 0 0 0 0 0 0 0 0 0 0 0 0 0 0 0 0 0 0 0 0 0 0 0 0 0 0 0 0 0 0 0 0 0 0 0 0 0 0 0 0 0 0
0 0 0 0 0 0 0 0 0 0 0 0 0 0 0 0 0 0 0 0 0 0 0 0 0 0 0 0 0 0 0 0 0 0 0 0 0 0 0 0 0 0 0 0 0
0 -0 0 0 0 0 0 0 0 0 0 0 0 0 0 0 0 0 0 0 0 0 0 0 0 0 0 0 0 0 0 0 0 0 0 0 0 0 0 0 0 0 0 0 0
Wind_Speed_500mb
27 28 27 22 20 21 21 20 21 19 16 12 11 9 8 5 3 4 8 8 6 3 2 10 12 11 7 2 4 6 5 5 6 4 10 14 9 5 4 6 5 6 13 20 35
33 28 27 27 22 19 21 19 18 19 19 15 11 10 8 9 8 7 9 8 7 5 10 10 4 10 4 3 6 6 5 10 15 14 11 13 7 9 3 11 12 4 17 30 30
33 31 27 26 27 24 19 20 19 16 18 17 13 9 7 6 5 11 9 6 4 7 7 16 12 6 6 3 6 7 7 12 12 11 8 11 4 2 9 6 23 16 26 29 26
33 28 27 25 24 25 25 20 19 18 15 16 15 12 7 4 3 4 7 5 4 8 12 13 11 7 9 8 4 8 14 11 11 6 4 2 8 6 14 9 7 15 22 24 26
36 25 22 27 27 24 25 25 21 18 17 13 14 13 6 6 11 13 7 4 6 9 11 9 12 8 8 10 11 16 10 19 13 7 4 8 12 10 15 9 8 11 16 18 21
37 31 24 22 26 27 27 25 24 20 17 14 11 9 6 11 11 10 6 5 8 12 6 16 5 6 16 9 9 20 21 21 10 3 2 8 10 2 7 10 6 8 12 16 19
41 35 38 30 23 27 26 27 24 22 18 14 11 8 12 18 12 10 5 2 6 16 13 17 25 5 16 10 21 29 11 9 11 6 3 5 11 17 17 4 5 6 10 13 18
43 41 44 39 28 29 26 27 26 21 19 15 10 9 11 15 16 13 8 6 9 14 19 19 22 23 12 29 10 6 8 6 11 10 7 1 8 17 15 5 5 7 9 10 16
45 44 42 42 39 30 23 26 25 22 18 15 9 8 9 9 15 18 16 8 14 15 18 21 17 12 15 8 6 5 4 3 8 14 1 11 11 13 12 6 5 5 9 12 16
40 42 41 44 42 38 30 22 21 22 18 13 14 8 15 7 16 21 19 24 6 19 12 6 6 9 8 6 6 8 8 5 6 11 12 11 22 20 18 11 7 4 3 12 14
42 44 43 40 39 30 23 15 11 9 19 16 8 1 6 13 17 20 24 16 12 9 9 7 6 11 18 14 7 5 4 6 3 7 5 12 20 17 9 19 13 9 3 10 10
50 48 44 36 35 33 27 9 5 10 16 28 36 24 15 20 8 19 29 16 12 10 7 5 9 10 15 14 9 7 6 4 5 6 4 9 21 25 21 17 12 12 12 5 6
44 42 43 39 37 34 27 24 23 20 11 15 26 21 17 28 7 28 35 12 13 13 14 6 7 7 7 10 12 9 6 7 1 6 11 12 14 3 10 14 19 20 20 9 3
49 45 46 49 41 44 33 25 18 7 6 11 14 17 28 20 8 26 38 13 5 13 10 3 15 9 8 11 1 9 4 3 4 2 4 6 8 8 12 13 18 30 26 18 8
47 42 53 51 45 34 31 24 30 21 2 8 11 11 22 21 28 15 32 8 12 8 3 4 13 10 10 6 4 6 2 1 2 4 7 7 2 9 13 12 18 29 30 20 12
54 51 55 65 64 38 43 50 40 9 18 7 10 11 11 10 8 14 12 8 15 9 10 8 6 3 6 9 3 13 5 5 3 3 3 9 7 9 12 15 12 27 32 26 16
43 54 62 71 79 52 65 43 9 11 6 9 9 14 15 11 11 11 18 14 13 11 8 7 6 5 9 10 5 6 4 2 6 4 9 4 1 16 8 12 16 24 39 33 23
62 48 60 82 82 71 80 11 11 11 10 3 7 10 12 15 10 12 21 15 16 8 7 12 6 20 13 4 11 13 3 7 11 7 5 4 12 11 8 22 34 39 41 37 28
63 46 68 95 86 72 60 14 18 14 15 21 13 7 10 7 6 12 16 11 21 23 13 13 5 7 7 6 3 10 8 2 5 4 5 9 11 6 8 11 18 35 43 38 31
48 32 69 92 85 79 11 23 9 10 13 10 16 13 17 14 12 14 21 14 12 32 7 9 10 2 4 5 1 4 3 6 3 3 8 6 9 12 14 20 18 22 40 38 35
43 20 38 72 82 45 18 15 10 27 10 15 12 10 9 14 14 13 13 7 20 28 20 6 10 1 7 14 14 6 5 7 0 6 8 4 12 4 19 30 31 26 47 45 46
33 9 44 95 10 11 20 16 19 15 9 4 7 8 14 16 13 12 15 5 11 30 19 6 11 8 11 4 8 7 10 12 8 10 5 2 12 6 8 20 34 39 46 45 45
16 7 75 100 22 21 8 8 13 13 14 14 10 10 8 14 10 15 12 8 6 11 20 15 6 7 7 4 2 11 12 8 8 3 12 11 10 3 7 11 30 46 49 50 48
16 7 17 50 12 33 28 17 15 13 14 17 9 13 7 5 2 12 17 1 7 6 5 8 9 12 14 8 10 13 18 19 13 7 8 12 5 11 14 16 19 40 51 54 55
21 8 11 15 23 23 37 28 27 17 6 27 5 16 19 11 7 9 4 7 5 3 3 6 11 4 6 4 1 8 18 38 34 27 15 12 22 13 23 24 40 46 48 51 55
12 9 12 9 31 21 32 29 49 17 29 28 23 42 25 17 20 18 16 10 9 6 8 2 3 5 5 3 1 11 13 31 44 30 21 12 15 15 5 44 41 53 56 62 66
35 50 16 14 19 22 25 40 54 49 26 49 47 25 32 30 20 26 19 19 24 20 11 10 11 6 9 4 3 20 25 36 26 28 45 26 34 13 13 18 51 63 67 71 70
Wind_Direction_500mb
317 299 291 286 292 298 303 310 315 314 312 310 306 302 274 303 8 305 282 287 285 264 138 110 111 112 94 75 25 341 293 181 90 111 98 122 199 137 261 271 281 282 301 317 318
331 317 299 292 287 287 297 302 308 311 309 306 303 302 291 273 281 278 292 292 273 206 148 93 152 129 63 27 12 6 300 54 15 29 129 150 263 116 266 240 245 34 325 328 331
331 332 318 303 298 292 287 297 300 302 305 305 302 295 296 283 318 228 271 281 256 195 180 161 156 159 114 115 10 31 2 101 53 50 89 121 262 182 296 286 44 349 330 336 334
322 336 328 317 306 300 295 293 297 299 299 302 301 292 283 236 289 276 269 281 208 183 150 147 161 197 159 151 118 103 46 60 112 70 31 152 360 265 232 315 347 337 332 336 332
308 323 336 329 319 306 295 297 294 294 296 295 299 299 275 280 254 279 272 271 195 175 154 165 205 170 147 123 131 95 125 99 104 98 25 333 264 279 285 247 302 334 348 342 343
296 300 319 333 327 312 301 291 294 291 288 291 293 296 256 252 264 251 259 245 211 162 175 168 233 177 95 55 354 114 125 122 141 136 323 312 282 6 171 210 314 330 353 356 349
291 290 291 305 328 315 306 295 291 290 286 282 286 288 254 248 272 237 226 171 154 152 169 137 148 181 122 110 110 125 112 150 178 189 268 310 254 227 230 174 309 345 352 356 350
277 288 284 286 297 311 308 300 291 286 284 279 267 276 266 259 244 203 158 117 119 142 163 152 133 120 90 122 116 190 169 189 134 175 206 243 278 190 154 152 332 3 9 354 346
268 277 283 283 281 291 313 306 291 285 277 272 257 243 252 244 200 189 170 160 117 122 127 131 122 108 138 157 116 196 249 167 167 197 298 198 277 124 153 192 277 23 7 339 336
261 274 276 280 275 274 295 305 291 285 269 254 230 248 238 190 202 187 176 153 138 131 114 131 160 150 179 179 202 185 226 208 210 181 221 239 257 276 195 208 248 321 359 305 334
263 262 267 278 266 268 274 305 311 289 236 217 195 208 184 209 174 181 176 154 141 203 192 184 215 202 188 193 102 306 51 149 96 120 289 246 267 269 270 184 208 223 194 274 341
260 255 258 266 259 261 237 192 292 303 303 254 239 231 210 168 162 196 173 159 200 200 110 139 230 77 70 111 115 100 150 243 331 149 210 341 278 251 244 223 179 174 215 241 307
257 256 258 242 249 250 233 215 196 326 265 228 224 215 209 188 203 190 181 177 207 220 198 201 74 123 131 152 182 193 228 195 227 202 230 296 287 180 203 152 159 209 220 214 245
249 250 260 229 224 235 238 207 180 203 314 220 211 203 191 160 211 181 179 174 184 212 181 7 135 170 175 175 90 206 76 6 157 300 280 182 282 238 172 177 201 202 199 186 213
252 248 239 243 223 216 225 164 182 119 222 98 143 183 176 172 143 176 177 166 168 137 135 181 155 181 189 111 84 83 199 7 344 272 11 215 91 253 106 215 217 190 184 176 192
245 234 246 246 217 205 158 148 133 85 240 207 129 153 156 191 134 123 157 138 96 111 46 68 1 339 54 89 24 135 142 190 262 271 342 199 166 252 188 202 156 167 165 176 179
243 239 244 239 224 200 160 140 102 204 319 184 186 161 199 163 152 188 170 171 154 115 172 135 179 100 177 98 75 215 183 26 354 3 227 51 151 251 146 148 150 157 164 173 184
246 236 241 240 229 209 177 121 201 196 207 217 123 157 177 143 203 207 162 190 239 220 124 152 250 174 184 225 177 189 125 172 203 202 236 27 230 252 132 110 148 162 170 171 171
251 244 215 219 222 213 177 222 192 189 170 153 141 134 204 156 145 178 197 204 201 196 166 170 133 21 70 15 356 174 188 133 97 61 42 206 254 340 117 131 155 151 164 168 181
259 259 223 216 215 184 217 225 224 232 132 167 168 166 179 168 167 185 181 213 208 189 231 185 103 332 98 316 250 355 359 107 312 186 246 268 271 235 204 200 197 181 180 181 186
257 255 216 205 187 176 215 201 186 235 211 166 182 143 172 173 177 199 210 300 192 176 170 135 113 88 116 214 181 165 187 203 85 185 205 265 260 272 209 186 190 187 188 185 184
245 250 191 177 187 166 203 169 175 165 208 147 145 144 169 158 178 226 221 258 222 155 172 203 103 160 198 55 27 318 220 172 140 219 245 133 273 353 38 158 171 180 186 186 194
216 236 181 173 196 195 132 144 191 138 159 169 182 139 135 165 182 202 204 316 354 142 164 189 175 96 354 5 358 225 202 235 110 71 209 148 260 353 49 98 166 168 180 183 190
187 209 200 216 173 196 173 168 178 223 165 138 150 91 113 224 6 214 167 341 9 37 273 158 168 172 184 165 130 191 198 191 165 148 173 222 296 213 202 194 189 174 179 182 188
207 216 212 211 207 212 187 177 175 162 239 151 31 195 167 180 164 230 108 116 17 246 297 145 188 151 116 86 302 219 195 189 197 204 178 205 219 228 200 196 196 184 181 185 192
232 197 210 258 222 204 188 191 188 165 156 193 208 191 189 172 190 184 154 189 152 170 202 187 153 81 299 12 55 263 231 198 212 221 274 238 270 235 266 197 184 192 191 193 200
231 261 264 230 189 197 200 189 197 187 208 190 195 169 200 206 101 95 112 120 147 157 175 162 134 119 255 319 0 271 197 198 210 214 212 208 224 164 198 192 190 194 202 204 206
Wind_Speed_850mb
27 28 27 22 20 21 21 20 21 19 16 12 11 9 8 5 3 4 8 8 6 3 2 10 12 11 7 2 4 6 5 5 6 4 10 14 9 5 4 6 5 6 13 20 35
33 28 27 27 22 19 21 19 18 19 19 15 11 10 8 9 8 7 9 8 7 5 10 10 4 10 4 3 6 6 5 10 15 14 11 13 7 9 3 11 12 4 17 30 30
33 31 27 26 27 24 19 20 19 16 18 17 13 9 7 6 5 11 9 6 4 7 7 16 12 6 6 3 6 7 7 12 12 11 8 11 4 2 9 6 23 16 26 29 26
33 28 27 25 24 25 25 20 19 18 15 16 15 12 7 4 3 4 7 5 4 8 12 13 11 7 9 8 4 8 14 11 11 6 4 2 8 6 14 9 7 15 22 24 26
36 25 22 27 27 24 25 25 21 18 17 13 14 13 6 6 11 13 7 4 6 9 11 9 12 8 8 10 11 16 10 19 13 7 4 8 12 10 15 9 8 11 16 18 21
37 31 24 22 26 27 27 25 24 20 17 14 11 9 6 11 11 10 6 5 8 12 6 16 5 6 16 9 9 20 21 21 10 3 2 8 10 2 7 10 6 8 12 16 19
41 35 38 30 23 27 26 27 24 22 18 14 11 8 12 18 12 10 5 2 6 16 13 17 25 5 16 10 21 29 11 9 11 6 3 5 11 17 17 4 5 6 10 13 18
43 41 44 39 28 29 26 27 26 21 19 15 10 9 11 15 16 13 8 6 9 14 19 19 22 23 12 29 10 6 8 6 11 10 7 1 8 17 15 5 5 7 9 10 16
45 44 42 42 39 30 23 26 25 22 18 15 9 8 9 9 15 18 16 8 14 15 18 21 17 12 15 8 6 5 4 3 8 14 1 11 11 13 12 6 5 5 9 12 16
40 42 41 44 42 38 30 22 21 22 18 13 14 8 15 7 16 21 19 24 6 19 12 6 6 9 8 6 6 8 8 5 6 11 12 11 22 20 18 11 7 4 3 12 14
42 44 43 40 39 30 23 15 11 9 19 16 8 1 6 13 17 20 24 16 12 9 9 7 6 11 18 14 7 5 4 6 3 7 5 12 20 17 9 19 13 9 3 10 10
50 48 44 36 35 33 27 9 5 10 16 28 36 24 15 20 8 19 29 16 12 10 7 5 9 10 15 14 9 7 6 4 5 6 4 9 21 25 21 17 12 12 12 5 6
44 42 43 39 37 34 27 24 23 20 11 15 26 21 17 28 7 28 35 12 13 13 14 6 7 7 7 10 12 9 6 7 1 6 11 12 14 3 10 14 19 20 20 9 3
49 45 46 49 41 44 33 25 18 7 6 11 14 17 28 20 8 26 38 13 5 13 10 3 15 9 8 11 1 9 4 3 4 2 4 6 8 8 12 13 18 30 26 18 8
47 42 53 51 45 34 31 24 30 21 2 8 11 11 22 21 28 15 32 8 12 8 3 4 13 10 10 6 4 6 2 1 2 4 7 7 2 9 13 12 18 29 30 20 12
54 51 55 65 64 38 43 50 40 9 18 7 10 11 11 10 8 14 12 8 15 9 10 8 6 3 6 9 3 13 5 5 3 3 3 9 7 9 12 15 12 27 32 26 16
43 54 62 71 79 52 65 43 9 11 6 9 9 14 15 11 11 11 18 14 13 11 8 7 6 5 9 10 5 6 4 2 6 4 9 4 1 16 8 12 16 24 39 33 23
62 48 60 82 82 71 80 11 11 11 10 3 7 10 12 15 10 12 21 15 16 8 7 12 6 20 13 4 11 13 3 7 11 7 5 4 12 11 8 22 34 39 41 37 28
63 46 68 95 86 72 60 14 18 14 15 21 13 7 10 7 6 12 16 11 21 23 13 13 5 7 7 6 3 10 8 2 5 4 5 9 11 6 8 11 18 35 43 38 31
48 32 69 92 85 79 11 23 9 10 13 10 16 13 17 14 12 14 21 14 12 32 7 9 10 2 4 5 1 4 3 6 3 3 8 6 9 12 14 20 18 22 40 38 35
43 20 38 72 82 45 18 15 10 27 10 15 12 10 9 14 14 13 13 7 20 28 20 6 10 1 7 14 14 6 5 7 0 6 8 4 12 4 19 30 31 26 47 45 46
33 9 44 95 10 11 20 16 19 15 9 4 7 8 14 16 13 12 15 5 11 30 19 6 11 8 11 4 8 7 10 12 8 10 5 2 12 6 8 20 34 39 46 45 45
16 7 75 100 22 21 8 8 13 13 14 14 10 10 8 14 10 15 12 8 6 11 20 15 6 7 7 4 2 11 12 8 8 3 12 11 10 3 7 11 30 46 49 50 48
16 7 17 50 12 33 28 17 15 13 14 17 9 13 7 5 2 12 17 1 7 6 5 8 9 12 14 8 10 13 18 19 13 7 8 12 5 11 14 16 19 40 51 54 55
21 8 11 15 23 23 37 28 27 17 6 27 5 16 19 11 7 9 4 7 5 3 3 6 11 4 6 4 1 8 18 38 34 27 15 12 22 13 23 24 40 46 48 51 55
12 9 12 9 31 21 32 29 49 17 29 28 23 42 25 17 20 18 16 10 9 6 8 2 3 5 5 3 1 11 13 31 44 30 21 12 15 15 5 44 41 53 56 62 66
35 50 16 14 19 22 25 40 54 49 26 49 47 25 32 30 20 26 19 19 24 20 11 10 11 6 9 4 3 20 25 36 26 28 45 26 34 13 13 18 51 63 67 71 70
Wind_Direction_850mb
317 299 291 286 292 298 303 310 315 314 312 310 306 302 274 303 8 305 282 287 285 264 138 110 111 112 94 75 25 341 293 181 90 111 98 122 199 137 261 271 281 282 301 317 318
331 317 299 292 287 287 297 302 308 311 309 306 303 302 291 273 281 278 292 292 273 206 148 93 152 129 63 27 12 6 300 54 15 29 129 150 263 116 266 240 245 34 325 328 331
331 332 318 303 298 292 287 297 300 302 305 305 302 295 296 283 318 228 271 281 256 195 180 161 156 159 114 115 10 31 2 101 53 50 89 121 262 182 296 286 44 349 330 336 334
322 336 328 317 306 300 295 293 297 299 299 302 301 292 283 236 289 276 269 281 208 183 150 147 161 197 159 151 118 103 46 60 112 70 31 152 360 265 232 315 347 337 332 336 332
308 323 336 329 319 306 295 297 294 294 296 295 299 299 275 280 254 279 272 271 195 175 154 165 205 170 147 123 131 95 125 99 104 98 25 333 264 279 285 247 302 334 348 342 343
296 300 319 333 327 312 301 291 294 291 288 291 293 296 256 252 264 251 259 245 211 162 175 168 233 177 95 55 354 114 125 122 141 136 323 312 282 6 171 210 314 330 353 356 349
291 290 291 305 328 315 306 295 291 290 286 282 286 288 254 248 272 237 226 171 154 152 169 137 148 181 122 110 110 125 112 150 178 189 268 310 254 227 230 174 309 345 352 356 350
277 288 284 286 297 311 308 300 291 286 284 279 267 276 266 259 244 203 158 117 119 142 163 152 133 120 90 122 116 190 169 189 134 175 206 243 278 190 154 152 332 3 9 354 346
268 277 283 283 281 291 313 306 291 285 277 272 257 243 252 244 200 189 170 160 117 122 127 131 122 108 138 157 116 196 249 167 167 197 298 198 277 124 153 192 277 23 7 339 336
261 274 276 280 275 274 295 305 291 285 269 254 230 248 238 190 202 187 176 153 138 131 114 131 160 150 179 179 202 185 226 208 210 181 221 239 257 276 195 208 248 321 359 305 334
263 262 267 278 266 268 274 305 311 289 236 217 195 208 184 209 174 181 176 154 141 203 192 184 215 202 188 193 102 306 51 149 96 120 289 246 267 269 270 184 208 223 194 274 341
260 255 258 266 259 261 237 192 292 303 303 254 239 231 210 168 162 196 173 159 200 200 110 139 230 77 70 111 115 100 150 243 331 149 210 341 278 251 244 223 179 174 215 241 307
257 256 258 242 249 250 233 215 196 326 265 228 224 215 209 188 203 190 181 177 207 220 198 201 74 123 131 152 182 193 228 195 227 202 230 296 287 180 203 152 159 209 220 214 245
249 250 260 229 224 235 238 207 180 203 314 220 211 203 191 160 211 181 179 174 184 212 181 7 135 170 175 175 90 206 76 6 157 300 280 182 282 238 172 177 201 202 199 186 213
252 248 239 243 223 216 225 164 182 119 222 98 143 183 176 172 143 176 177 166 168 137 135 181 155 181 189 111 84 83 199 7 344 272 11 215 91 253 106 215 217 190 184 176 192
245 234 246 246 217 205 158 148 133 85 240 207 129 153 156 191 134 123 157 138 96 111 46 68 1 339 54 89 24 135 142 190 262 271 342 199 166 252 188 202 156 167 165 176 179
243 239 244 239 224 200 160 140 102 204 319 184 186 161 199 163 152 188 170 171 154 115 172 135 179 100 177 98 75 215 183 26 354 3 227 51 151 251 146 148 150 157 164 173 184
246 236 241 240 229 209 177 121 201 196 207 217 123 157 177 143 203 207 162 190 239 220 124 152 250 174 184 225 177 189 125 172 203 202 236 27 230 252 132 110 148 162 170 171 171
251 244 215 219 222 213 177 222 192 189 170 153 141 134 204 156 145 178 197 204 201 196 166 170 133 21 70 15 356 174 188 133 97 61 42 206 254 340 117 131 155 151 164 168 181
259 259 223 216 215 184 217 225 224 232 132 167 168 166 179 168 167 185 181 213 208 189 231 185 103 332 98 316 250 355 359 107 312 186 246 268 271 235 204 200 197 181 180 181 186
257 255 216 205 187 176 215 201 186 235 211 166 182 143 172 173 177 199 210 300 192 176 170 135 113 88 116 214 181 165 187 203 85 185 205 265 260 272 209 186 190 187 188 185 184
245 250 191 177 187 166 203 169 175 165 208 147 145 144 169 158 178 226 221 258 222 155 172 203 103 160 198 55 27 318 220 172 140 219 245 133 273 353 38 158 171 180 186 186 194
216 236 181 173 196 195 132 144 191 138 159 169 182 139 135 165 182 202 204 316 354 142 164 189 175 96 354 5 358 225 202 235 110 71 209 148 260 353 49 98 166 168 180 183 190
187 209 200 216 173 196 173 168 178 223 165 138 150 91 113 224 6 214 167 341 9 37 273 158 168 172 184 165 130 191 198 191 165 148 173 222 296 213 202 194 189 174 179 182 188
207 216 212 211 207 212 187 177 175 162 239 151 31 195 167 180 164 230 108 116 17 246 297 145 188 151 116 86 302 219 195 189 197 204 178 205 219 228 200 196 196 184 181 185 192
232 197 210 258 222 204 188 191 188 165 156 193 208 191 189 172 190 184 154 189 152 170 202 187 153 81 299 12 55 263 231 198 212 221 274 238 270 235 266 197 184 192 191 193 200
231 261 264 230 189 197 200 189 197 187 208 190 195 169 200 206 101 95 112 120 147 157 175 162 134 119 255 319 0 271 197 198 210 214 212 208 224 164 198 192 190 194 202 204 206